Location: Newark
(21.1200°N, 73.4000°E)
Time: 01:09:20
(UTC+00:00)

Explorer 11/Cluster Stage 4 - Pass Details

Date: 27 January 2020
Orbit: 467 x 1259 km, 28.8° (Epoch: 19 February)

Event Time Altitude Azimuth Distance (km) Brightness Sun altitude
Rises 08:01:29 0° 260° (W) 4,068 10.5 49.0°
Reaches altitude 10° 08:04:18 10° 262° (W) 3,163 10.0 48.8°
Maximum altitude 08:12:24 67° 344° (NNW) 1,348 8.3 48.2°
Drops below altitude 10° 08:20:27 10° 66° (ENE) 3,145 9.5 47.6°
Sets 08:23:15 0° 69° (ENE) 4,043 9.9 47.3°
